This demonstration page uses our WeatherBlox Daily Observations layout. Learn more.

Hourly Observations for February 2, 2017

Temp ( °F °C ) Dew Point ( °F °C ) Humidity (%) Winds ( mph kmh ) Pressure ( in mb ) Visibility ( mi km ) Precip ( " mm )
12:15 am 00:15 Clear 20 -6.5 14 -9.9 77 77 WNW 3 6 30.62 1037 10 16.0934 0 0
12:35 am 00:35 Clear 21 -6 15 -9.5 77 77 NW 5 7 30.62 1037 10 16.0934 0 0
12:55 am 00:55 Clear 22 -5.7 16 -9.1 77 77 NW 5 7 30.62 1037 10 16.0934 0 0
1:15 am 01:15 Clear 23 -5.2 15 -9.2 74 74 NNW 7 11 30.59 1036 10 16.0934 0 0
1:35 am 01:35 Clear 23 -5.1 15 -9.5 72 72 NNW 8 13 30.59 1036 10 16.0934 0 0
1:55 am 01:55 Clear 23 -5 14 -10.1 68 68 N 7 11 30.59 1036 10 16.0934 0 0
2:15 am 02:15 Clear 23 -5.2 13 -10.5 67 67 N 10 17 30.59 1036 10 16.0934 0 0
2:35 am 02:35 Clear 22 -5.6 10 -12.3 60 60 N 10 17 30.62 1037 10 16.0934 0 0
2:55 am 02:55 Clear 21 -6 10 -12 63 63 N 8 13 30.62 1037 10 16.0934 0 0
3:15 am 03:15 Clear 21 -6.1 11 -11.9 64 64 N 12 19 30.62 1037 10 16.0934 0 0
3:35 am 03:35 Clear 21 -6.2 12 -11.3 68 68 N 10 17 30.62 1037 10 16.0934 0 0
3:55 am 03:55 Clear 20 -6.7 10 -12 66 66 N 13 20 30.62 1037 10 16.0934 0 0
4:15 am 04:15 Clear 19 -7.1 11 -11.5 71 71 N 10 17 30.62 1037 10 16.0934 0 0
4:35 am 04:35 Clear 19 -7.5 12 -11.3 75 75 N 10 17 30.65 1038 10 16.0934 0 0
4:55 am 04:55 Clear 17 -8.1 11 -11.6 76 76 N 9 15 30.65 1038 10 16.0934 0 0
5:15 am 05:15 Clear 17 -8.3 11 -11.6 77 77 N 7 11 30.68 1039 10 16.0934 0 0
5:35 am 05:35 Clear 17 -8.5 11 -11.8 77 77 N 7 11 30.68 1039 10 16.0934 0 0
5:55 am 05:55 Clear 16 -9 10 -12 79 79 N 6 9 30.68 1039 10 16.0934 0 0
6:15 am 06:15 Clear 15 -9.4 10 -12 82 82 NNE 6 9 30.68 1039 10 16.0934 0 0
6:35 am 06:35 Clear 16 -9.1 10 -12.1 79 79 NNE 7 11 30.68 1039 10 16.0934 0 0
6:55 am 06:55 Clear 16 -9.1 10 -12.2 78 78 NNE 7 11 30.68 1039 10 16.0934 0 0
7:15 am 07:15 Clear 15 -9.3 10 -12.4 78 78 N 5 7 30.68 1039 10 16.0934 0 0
7:35 am 07:35 Clear 15 -9.5 10 -12.5 79 79 Calm 30.68 1039 10 16.0934 0 0
7:55 am 07:55 Sunny 14 -9.8 10 -12.5 81 81 Calm 30.68 1039 10 16.0934 0 0
8:15 am 08:15 Sunny 15 -9.3 10 -12.1 80 80 N 3 6 30.68 1039 10 16.0934 0 0
8:35 am 08:35 Sunny 17 -8.6 11 -11.7 79 79 N 6 9 30.68 1039 10 16.0934 0 0
8:55 am 08:55 Sunny 17 -8.2 11 -11.8 76 76 NNE 7 11 30.68 1039 10 16.0934 0 0
9:15 am 09:15 Sunny 17 -8.1 10 -12 74 74 N 7 11 30.65 1038 10 16.0934 0 0
9:35 am 09:35 Partly Cloudy 17 -8.1 11 -11.9 74 74 NNE 5 7 30.65 1038 10 16.0934 0 0
9:55 am 09:55 Mostly Cloudy 18 -7.6 11 -11.9 72 72 N 3 6 30.65 1038 10 16.0934 0 0
10:15 am 10:15 Mostly Cloudy 19 -7.1 11 -11.6 71 71 N 5 7 30.68 1039 10 16.0934 0 0
10:35 am 10:35 Cloudy 19 -7 11 -11.7 69 69 N 5 7 30.68 1039 10 16.0934 0 0
10:55 am 10:55 Mostly Cloudy 20 -6.5 11 -11.6 67 67 Calm 30.65 1038 10 16.0934 0 0
11:15 am 11:15 Partly Cloudy 21 -6.1 11 -11.9 64 64 Calm 30.65 1038 10 16.0934 0 0
11:35 am 11:35 Cloudy 22 -5.7 11 -11.6 63 63 WNW 6 9 30.65 1038 10 16.0934 0 0
11:55 am 11:55 Cloudy 22 -5.4 11 -11.4 63 63 Calm 30.65 1038 10 16.0934 0 0
12:15 pm 12:15 Cloudy 22 -5.3 10 -12.3 58 58 NNE 3 6 30.65 1038 10 16.0934 0 0
12:35 pm 12:35 Cloudy 23 -5.2 9 -12.6 56 56 N 5 7 30.62 1037 10 16.0934 0 0
12:55 pm 12:55 Cloudy 23 -5 10 -12.4 57 57 Calm 30.59 1036 10 16.0934 0 0
1:15 pm 13:15 Cloudy 24 -4.7 11 -11.8 58 58 Calm 30.59 1036 10 16.0934 0 0
1:35 pm 13:35 Cloudy 23 -4.8 10 -12 57 57 Calm 30.59 1036 10 16.0934 0 0
1:55 pm 13:55 Cloudy 24 -4.7 10 -12.2 56 56 Calm 30.56 1035 10 16.0934 0 0
2:15 pm 14:15 Cloudy 24 -4.2 10 -12.4 53 53 WNW 3 6 30.56 1035 10 16.0934 0 0
2:35 pm 14:35 Cloudy 24 -4.2 10 -12.3 54 54 Calm 30.53 1034 10 16.0934 0 0
2:55 pm 14:55 Cloudy 25 -4.1 10 -12.2 54 54 Calm 30.53 1034 10 16.0934 0 0
3:15 pm 15:15 Cloudy 25 -3.9 10 -12.3 52 52 NE 5 7 30.53 1034 10 16.0934 0 0
3:35 pm 15:35 Cloudy 25 -3.9 9 -12.7 51 51 Calm 30.53 1034 10 16.0934 0 0
3:55 pm 15:55 Cloudy 25 -4.1 9 -12.8 51 51 Calm 30.53 1034 10 16.0934 0 0
4:15 pm 16:15 Cloudy 25 -4 9 -13 50 50 Calm 30.53 1034 10 16.0934 0 0
4:35 pm 16:35 Cloudy 25 -4.1 9 -12.6 52 52 Calm 30.53 1034 10 16.0934 0 0
4:55 pm 16:55 Cloudy 25 -4 9 -12.9 50 50 ENE 3 6 30.53 1034 10 16.0934 0 0
5:15 pm 17:15 Cloudy 25 -4.1 8 -13.1 50 50 Calm 30.53 1034 10 16.0934 0 0
5:35 pm 17:35 Cloudy 24 -4.2 9 -12.9 51 51 NE 3 6 30.53 1034 10 16.0934 0 0
5:55 pm 17:55 Cloudy 24 -4.3 9 -12.9 52 52 ENE 5 7 30.5 1033 10 16.0934 0 0
6:15 pm 18:15 Cloudy 24 -4.5 10 -12.5 54 54 ENE 6 9 30.5 1033 10 16.0934 0 0
6:35 pm 18:35 Cloudy 24 -4.5 10 -12.5 54 54 ENE 3 6 30.5 1033 10 16.0934 0 0
6:55 pm 18:55 Cloudy 24 -4.5 10 -12.5 54 54 ENE 6 9 30.5 1033 10 16.0934 0 0
7:15 pm 19:15 Cloudy 24 -4.5 10 -12.5 54 54 ENE 5 7 30.5 1033 10 16.0934 0 0
7:35 pm 19:35 Cloudy 24 -4.5 10 -12.2 55 55 ENE 6 9 30.5 1033 10 16.0934 0 0
7:55 pm 19:55 Cloudy 24 -4.5 10 -12.1 56 56 E 3 6 30.5 1033 10 16.0934 0 0
8:15 pm 20:15 Cloudy 24 -4.5 11 -11.9 57 57 E 5 7 30.5 1033 10 16.0934 0 0
8:35 pm 20:35 Cloudy with Light Snow 23 -4.9 13 -10.7 64 64 E 3 6 30.53 1034 7 11.26538 0 0
8:55 pm 20:55 Cloudy with Light Snow 22 -5.3 15 -9.7 72 72 E 5 7 30.53 1034 4 6.43736 0 0
9:15 pm 21:15 Cloudy with Light Snow 22 -5.7 16 -8.7 80 80 ENE 6 9 30.53 1034 3 4.82802 0 0
9:35 pm 21:35 Cloudy with Light Snow 21 -6 17 -8.5 83 83 E 5 7 30.53 1034 2 3.21868 0 0
9:55 pm 21:55 Cloudy with Light Snow 21 -6 17 -8.2 85 85 E 5 7 30.53 1034 3 4.82802 0 0
10:15 pm 22:15 Cloudy with Light Snow 21 -6.1 17 -8.1 86 86 E 5 7 30.56 1035 2.5 4.02335 0 0
10:35 pm 22:35 Cloudy with Light Snow 21 -6.1 18 -7.8 88 88 E 6 9 30.56 1035 2.5 4.02335 0 0
10:55 pm 22:55 Cloudy with Light Snow 21 -6.2 18 -8 87 87 E 3 6 30.56 1035 1.75 2.816345 0 0
11:15 pm 23:15 Cloudy with Light Snow 21 -6.2 18 -7.7 89 89 E 6 9 30.56 1035 2 3.21868 0 0
11:35 pm 23:35 Cloudy with Light Snow 21 -6.3 18 -7.7 90 90 ENE 6 9 30.59 1036 2.5 4.02335 0.01 0.254
11:55 pm 23:55 Cloudy with Light Snow 21 -6.3 18 -7.6 91 91 ENE 5 7 30.59 1036 1.5 2.41401 0.01 0.254

Powered by AerisWeather